Home   Weather   Londonderry   Past weeks

Flag for United Kingdom Past Weather in Londonderry, Northern Ireland, United Kingdom — Yesterday and Last 2 Weeks

Now
46 °F

Overcast.


Feels Like: 45 °F
Forecast: N/A
Wind: 3 mph from North

Location: Eglinton / Londonderry

Current Time: Jan 19, 2017 at 3:08:48 pm

Latest Report: Jan 19, 2017 at 2:50 pm


Visibility: N/A

Pressure: 30.57 "Hg

Humidity: 76%

Dew Point: 39 °F

Location of LondonderryLocation

Past Weather in Londonderry — Graph

°F

Londonderry Temperature Yesterday

Maximum temperature yesterday: 50 °F (at 10:50 am)
Minimum temperature yesterday: 48 °F (at 6:20 am)
Average temperature yesterday: 49 °F

High & Low Weather Summary for the Past Weeks

 TemperatureHumidityPressure
High55 °F (Jan 6, 1:20 pm)100% (Jan 5, 7:20 am)30.63 "Hg (Jan 5, 7:20 am)
Low30 °F (Jan 5, 6:20 am)56% (Jan 13, 9:20 am)29.45 "Hg (Jan 12, 3:20 pm)
Average47 °F87%30.17 "Hg
* Reported Jan 4 1:20 pm — Jan 19 1:50 pm, Londonderry, Weather by CustomWeather, © 2017

Note: Actual official high and low records may vary slightly from our data, if they occured in-between our weather recording intervals... More about our weather records

Advertising

Londonderry Weather History for the Previous 24 Hours

Scroll right to see more
 ConditionsComfort  
Time TempWeatherWind HumidityBarometerVisibility
1:50 pm
Thu, Jan 19
46 °FOvercast.5 mph76%30.60 "HgN/A
1:20 pm46 °FOvercast.9 mph76%30.60 "HgN/A
12:50 pm46 °FOvercast.8 mph76%30.60 "HgN/A
12:20 pm46 °FOvercast.8 mph76%30.60 "HgN/A
11:50 am46 °FOvercast.8 mph82%30.63 "HgN/A
11:20 am45 °FOvercast.7 mph81%30.63 "HgN/A
10:50 am46 °FOvercast.7 mph82%30.63 "HgN/A
10:20 am45 °FOvercast.6 mph87%30.63 "HgN/A
9:50 am46 °FOvercast.8 mph82%30.63 "HgN/A
9:20 am46 °FOvercast.9 mph76%30.63 "HgN/A
8:50 am46 °FOvercast.10 mph82%30.60 "HgN/A
8:20 am46 °FOvercast.9 mph82%30.60 "HgN/A
7:50 am46 °FOvercast.8 mph82%30.60 "HgN/A
7:20 am46 °FOvercast.7 mph82%30.60 "HgN/A
6:20 am45 °FPassing clouds.7 mph87%30.60 "HgN/A
4:50 pm
Wed, Jan 18
48 °FPassing clouds.7 mph82%30.57 "HgN/A
4:20 pm48 °FPartly sunny.7 mph82%30.54 "HgN/A
3:50 pm48 °FPartly sunny.8 mph82%30.54 "HgN/A
3:20 pm50 °FPartly sunny.8 mph76%30.54 "HgN/A
Weather by CustomWeather, © 2017

See weather overviewHow to use our weather pages